Weather History for KNBC - July, 2013

Change the Weather History Date:

Monday, July 15, 2013

  Actual Average Record
Temperature  
Mean Temperature 80 °F -  
Max Temperature 88 °F 90 °F 104 °F (1932)
Min Temperature 75 °F 73 °F 46 °F (2000)
Cooling Degree Days 16    
Growing Degree Days 30 (Base 50)    
Moisture  
Dew Point 74 °F    
Average Humidity 81    
Maximum Humidity 94    
Minimum Humidity 65    
Precipitation  
Precipitation 0.09 in - - ()
Sea Level Pressure  
Sea Level Pressure 30.21 in    
Wind  
Wind Speed 7 mph (East)    
Max Wind Speed 17 mph    
Max Gust Speed 23 mph    
Visibility 9 miles    
Events Rain , Thunderstorm    
Averages and records for this station are not official NWS values.
T = Trace of Precipitation, MM = Missing Value Source: NWS Daily Summary

Daily Weather History Graph

Daily Weather History Graph

Search for Another Location

Airport or City:

Trip Planner

Search our weather history database for the weather conditions in past years. The results will help you decide how hot, cold, wet, or windy it might be!

Date:

Astronomy

Jul. 15, 2013 Rise Set
Actual Time 6:26 AM EDT 8:30 PM EDT
Civil Twilight 5:58 AM EDT 8:58 PM EDT
Nautical Twilight 5:24 AM EDT 9:32 PM EDT
Astronomical Twilight 4:48 AM EDT 10:08 PM EDT
Moon 1:16 PM EDT (7/15) 12:08 AM EDT (7/15)
Length of Visible Light 15h 00m
Length of Day
14h 04m
Waxing Crescent, 45% of the Moon is Illuminated
Jul 15
Waxing Crescent
Jul 15
First Quarter
Jul 22
Full
Jul 29
Last Quarter
Aug 6
New

Hourly Weather History & Observations

Time (EDT) Temp. Heat Index Dew Point Humidity Pressure Visibility Wind Dir Wind Speed Gust Speed Precip Events Conditions
12:56 AM 78.1 °F - 73.9 °F 87% 30.20 in 10.0 mi ENE 4.6 mph - 0.02 in Rain Light Rain
1:56 AM 77.0 °F - 73.9 °F 90% 30.20 in 10.0 mi NE 5.8 mph - 0.00 in Rain Light Rain
2:56 AM 75.9 °F - 73.9 °F 94% 30.19 in 10.0 mi NE 5.8 mph - 0.00 in Rain Light Rain
3:56 AM 75.9 °F - 73.0 °F 91% 30.19 in 10.0 mi NE 4.6 mph - 0.00 in Rain Light Rain
4:11 AM 75.9 °F - 73.9 °F 94% 30.19 in 9.0 mi NE 5.8 mph - 0.00 in Rain Light Rain
4:20 AM 75.9 °F - 73.9 °F 94% 30.19 in 10.0 mi NE 5.8 mph - 0.00 in Rain Light Rain
4:39 AM 75.9 °F - 73.9 °F 94% 30.18 in 9.0 mi ENE 5.8 mph - 0.00 in Rain Light Rain
4:51 AM 75.2 °F - 73.4 °F 94% 30.19 in 9.0 mi ENE 9.2 mph - 0.00 in Rain Light Rain
4:56 AM 75.9 °F - 73.0 °F 91% 30.19 in 10.0 mi East 6.9 mph - 0.00 in Rain Light Rain
5:56 AM 75.0 °F - 72.0 °F 90% 30.19 in 10.0 mi NNE 6.9 mph - 0.00 in Rain Light Rain
6:07 AM 75.0 °F - 72.0 °F 90% 30.19 in 10.0 mi NE 5.8 mph - 0.00 in Rain Light Rain
6:38 AM 75.9 °F - 73.0 °F 91% 30.20 in 7.0 mi NE 8.1 mph - 0.00 in Rain Light Rain
6:56 AM 75.9 °F - 73.0 °F 91% 30.20 in 5.0 mi ENE 5.8 mph - 0.00 in Rain Light Rain
7:20 AM 75.9 °F - 73.9 °F 94% 30.20 in 6.0 mi NE 4.6 mph - 0.00 in   Overcast
7:31 AM 77.0 °F - 73.9 °F 90% 30.20 in 7.0 mi ENE 4.6 mph - 0.00 in   Mostly Cloudy
7:56 AM 78.1 °F - 73.9 °F 87% 30.21 in 10.0 mi ENE 9.2 mph - 0.00 in   Mostly Cloudy
8:56 AM 81.0 °F 86.2 °F 73.9 °F 79% 30.22 in 10.0 mi ENE 6.9 mph - N/A   Mostly Cloudy
9:56 AM 82.9 °F 90.2 °F 75.0 °F 77% 30.22 in 10.0 mi East 6.9 mph - N/A   Mostly Cloudy
10:51 AM 82.4 °F 88.2 °F 73.4 °F 74% 30.23 in 10.0 mi ESE 12.7 mph - 0.00 in   Mostly Cloudy
10:56 AM 84.0 °F 91.2 °F 73.9 °F 72% 30.23 in 10.0 mi ESE 13.8 mph 20.7 mph 0.00 in   Mostly Cloudy
11:10 AM 84.9 °F 92.1 °F 73.9 °F 69% 30.23 in 10.0 mi East 11.5 mph - 0.01 in   Mostly Cloudy
11:56 AM 86.0 °F 93.0 °F 73.0 °F 65% 30.24 in 10.0 mi ESE 13.8 mph - 0.01 in   Mostly Cloudy
12:03 PM 86.0 °F 93.8 °F 73.9 °F 67% 30.23 in 10.0 mi ESE 11.5 mph - N/A   Scattered Clouds
12:19 PM 86.0 °F 93.0 °F 73.0 °F 65% 30.23 in 10.0 mi SE 10.4 mph 21.9 mph N/A   Mostly Cloudy
12:56 PM 86.0 °F 93.8 °F 73.9 °F 67% 30.24 in 10.0 mi ESE 11.5 mph 19.6 mph N/A   Mostly Cloudy
1:56 PM 86.0 °F 93.8 °F 73.9 °F 67% 30.22 in 10.0 mi SE 11.5 mph 23.0 mph N/A   Mostly Cloudy
2:49 PM 84.0 °F 91.9 °F 75.0 °F 74% 30.22 in 10.0 mi ESE 12.7 mph 23.0 mph N/A Thunderstorm Thunderstorm
2:56 PM 84.0 °F 91.2 °F 73.9 °F 72% 30.22 in 10.0 mi ESE 9.2 mph 19.6 mph N/A Thunderstorm Thunderstorm
3:09 PM 84.9 °F 92.1 °F 73.9 °F 69% 30.21 in 10.0 mi ESE 12.7 mph 18.4 mph N/A   Mostly Cloudy
3:56 PM 84.9 °F 90.7 °F 72.0 °F 65% 30.21 in 10.0 mi SE 17.3 mph 20.7 mph N/A   Mostly Cloudy
4:56 PM 84.9 °F 92.1 °F 73.9 °F 69% 30.20 in 10.0 mi ESE 12.7 mph - N/A   Mostly Cloudy
5:56 PM 84.9 °F 91.4 °F 73.0 °F 67% 30.20 in 10.0 mi ESE 12.7 mph 23.0 mph N/A   Mostly Cloudy
6:56 PM 84.0 °F 90.2 °F 73.0 °F 69% 30.20 in 10.0 mi ESE 10.4 mph - N/A   Mostly Cloudy
7:56 PM 81.0 °F 85.2 °F 72.0 °F 74% 30.22 in 10.0 mi ESE 9.2 mph - N/A   Mostly Cloudy
8:56 PM 78.1 °F - 72.0 °F 81% 30.22 in 4.0 mi East 10.4 mph - 0.05 in Rain Rain
9:56 PM 77.0 °F - 73.0 °F 88% 30.23 in 10.0 mi SE 4.6 mph - 0.01 in   Mostly Cloudy
10:56 PM 78.1 °F - 73.9 °F 87% 30.24 in 10.0 mi ENE 4.6 mph - N/A   Partly Cloudy
11:47 PM 79.0 °F - 75.0 °F 88% 30.24 in 10.0 mi East 3.5 mph - N/A   Mostly Cloudy
11:56 PM 79.0 °F - 75.0 °F 88% 30.24 in 10.0 mi East 3.5 mph - N/A   Mostly Cloudy